Regional Weather Roundup
Issued by NWS

Home | Current Version | Previous Version | Text Only | Print | Product List | Glossary On
Versions: 1 2 3 4 5 6 7 8 9 10 11 12 13 14 15 16 17 18 19 20 21 22 23 24 25 26 27 28 29 30 31 32 33 34 35 36 37 38 39 40 41 42 43 44 45 46 47 48 49 50
000
ASUS45 KCYS 291610
RWRWY

WYOMING REGIONAL WEATHER ROUNDUP
NATIONAL WEATHER SERVICE CHEYENNE WY
1000 AM MDT WED JUL 29 2015

NOTE:  "FAIR" INDICATES FEW OR NO CLOUDS BELOW 12,000 FEET
WITH NO SIGNIFICANT WEATHER AND/OR OBSTRUCTIONS TO VISIBILITY.

WYZ001-291700-
YELLOWSTONE NATIONAL PARK

CITY           SKY/WX    TMP DP  RH WIND       PRES   REMARKS
LK YELLOWSTONE   N/A     50  34  54 VRB5      30.51S
W YELLOWSTONE  NOT AVBL

$$
WYZ002>013-054>058-071-098>099-291700-
NORTHERN WYOMING

CITY           SKY/WX    TMP DP  RH WIND       PRES   REMARKS
JACKSON        FAIR      52  36  54 CALM      30.46F
CODY           FAIR      66  34  30 W8        30.34S
GREYBULL       FAIR      66  35  31 S3        30.31F
WORLAND        FAIR      67  32  27 CALM      30.32F
SHERIDAN       FAIR      74  35  24 N6        30.29F
BUFFALO        FAIR      69  34  27 S12       30.34F
GILLETTE       FAIR      71  34  25 SW7       30.31F
HULETT         FAIR      68  39  34 SW9       30.31F
NEWCASTLE      FAIR      66  36  32 S3        30.33F

$$
WYZ014>020-022>026-101>103-291700-
CENTRAL WYOMING

CITY           SKY/WX    TMP DP  RH WIND       PRES   REMARKS
BIG PINEY      FAIR      58  29  33 SW6       30.45F
PINEDALE       FAIR      55  27  33 E3        30.46S
DUBOIS         FAIR      59  30  33 N10       30.42F
LANDER         FAIR      65  31  28 N6        30.37F
RIVERTON       FAIR      63  37  38 NE3       30.38F
CASPER         FAIR      64  32  30 CALM      30.36F
DOUGLAS        FAIR      68  32  26 SE7       30.36F

$$
WYZ021-027>030-104>119-291700-
SOUTHERN WYOMING

CITY           SKY/WX    TMP DP  RH WIND       PRES   REMARKS
EVANSTON       FAIR      59  28  30 SE7       30.45S
KEMMERER       FAIR      59  28  31 CALM      30.47R
FORT BRIDGER   SUNNY     61  28  29 E3        30.48S
ROCK SPRINGS   FAIR      59  27  29 CALM      30.44S
DIXON          FAIR      60  27  28 CALM      30.43F
RAWLINS        FAIR      61  25  25 VRB3      30.42S
SARATOGA       FAIR      61  30  31 NE3       30.43S
LARAMIE        FAIR      66  42  41 SW7       30.40F
CHEYENNE       FAIR      66  41  40 VRB5      30.38S
TORRINGTON     FAIR      69  43  38 SE10      30.32F
PINE BLUFFS    FAIR      72  43  35 S8        30.33F

$$


USA.gov is the U.S. government's official web portal to all federal, state and local government web resources and services.